Bloomington, IN

8:07 PM EST on February 19, 2017 (GMT -0500)
Monroe County

Weather History for KBMG - March, 2013

Change the Weather History Date:

Friday, March 22, 2013

  Actual Average Record
Temperature  
Mean Temperature 31 °F 45 °F  
Max Temperature 46 °F 57 °F 81 °F (2012)
Min Temperature 16 °F 34 °F 12 °F (2006)
Degree Days  
Heating Degree Days 34 20  
Month to date heating degree days 642 525  
Since 1 July heating degree days 4598 4593  
Cooling Degree Days 0 0  
Month to date cooling degree days 0 0  
Year to date cooling degree days 0 0  
Moisture  
Dew Point 14 °F    
Average Humidity 54    
Maximum Humidity 80    
Minimum Humidity 27    
Precipitation  
Precipitation 0.00 in 0.14 in 0.49 in (2007)
Month to date precipitation 1.83 2.42  
Year to date precipitation 9.84 8.49  
Sea Level Pressure  
Sea Level Pressure 30.05 in    
Wind  
Wind Speed 2 mph (SW)    
Max Wind Speed 10 mph    
Max Gust Speed 13 mph    
Visibility 10 miles    
Events      
T = Trace of Precipitation, MM = Missing Value Source: NWS Daily Summary

Daily Weather History Graph

Daily Weather History Graph

Search for Another Location

Airport or City:

Trip Planner

Search our weather history database for the weather conditions in past years. The results will help you decide how hot, cold, wet, or windy it might be!

Date:

Astronomy

Mar. 22, 2013 Rise Set
Actual Time 7:46 AM EDT 8:00 PM EDT
Civil Twilight 7:19 AM EDT 8:27 PM EDT
Nautical Twilight 6:48 AM EDT 8:58 PM EDT
Astronomical Twilight 6:16 AM EDT 9:30 PM EDT
Moon 3:29 PM EDT (3/22) 4:44 AM EDT (3/22)
Length of Visible Light 13h 07m
Length of Day
12h 14m
Waxing Gibbous, 77% of the Moon is Illuminated
Mar 22
Waxing Gibbous
Mar 27
Full
Apr 3
Last Quarter
Apr 10
New
Apr 18
First Quarter

Hourly Weather History & Observations

Time (EDT) Temp. Windchill Dew Point Humidity Pressure Visibility Wind Dir Wind Speed Gust Speed Precip Events Conditions
12:53 AM 21.0 °F - 12.9 °F 71% 30.06 in 10.0 mi Calm Calm - N/A   Clear
1:53 AM 19.9 °F - 12.0 °F 71% 30.05 in 10.0 mi Calm Calm - N/A   Clear
2:53 AM 18.0 °F 12.7 °F 12.9 °F 81% 30.04 in 9.0 mi SW 3.5 mph - N/A   Clear
3:53 AM 19.9 °F - 12.0 °F 71% 30.05 in 10.0 mi Calm Calm - N/A   Clear
4:53 AM 18.0 °F - 12.9 °F 81% 30.05 in 10.0 mi Calm Calm - N/A   Clear
5:53 AM 17.1 °F - 12.9 °F 84% 30.06 in 10.0 mi Calm Calm - N/A   Clear
6:53 AM 17.1 °F - 10.9 °F 77% 30.06 in 9.0 mi Calm Calm - N/A   Clear
7:53 AM 17.1 °F - 12.0 °F 81% 30.07 in 8.0 mi Calm Calm - N/A   Clear
8:53 AM 21.9 °F - 16.0 °F 78% 30.09 in 9.0 mi Calm Calm - N/A   Clear
9:53 AM 28.9 °F - 18.0 °F 64% 30.09 in 10.0 mi Calm Calm - N/A   Clear
10:53 AM 33.1 °F 30.0 °F 14.0 °F 46% 30.09 in 10.0 mi Variable 3.5 mph - N/A   Clear
11:53 AM 35.1 °F 32.2 °F 12.0 °F 39% 30.08 in 10.0 mi ESE 3.5 mph - N/A   Clear
12:53 PM 37.9 °F 35.5 °F 12.9 °F 36% 30.07 in 10.0 mi West 3.5 mph - N/A   Clear
1:53 PM 39.9 °F 37.8 °F 12.0 °F 32% 30.06 in 10.0 mi North 3.5 mph - N/A   Clear
2:53 PM 42.1 °F 37.7 °F 12.0 °F 29% 30.03 in 10.0 mi ESE 6.9 mph - N/A   Clear
3:53 PM 44.1 °F 42.5 °F 12.0 °F 27% 30.00 in 10.0 mi Variable 3.5 mph - N/A   Clear
4:53 PM 45.0 °F 42.6 °F 12.0 °F 26% 29.99 in 10.0 mi ESE 4.6 mph - N/A   Clear
5:53 PM 45.0 °F 41.8 °F 12.0 °F 26% 29.99 in 10.0 mi SE 5.8 mph - N/A   Overcast
6:53 PM 44.1 °F 40.8 °F 16.0 °F 32% 30.01 in 10.0 mi WSW 5.8 mph - N/A   Overcast
7:53 PM 41.0 °F 36.4 °F 17.1 °F 38% 30.03 in 10.0 mi West 6.9 mph - N/A   Overcast
8:53 PM 39.9 °F 37.8 °F 19.0 °F 43% 30.02 in 10.0 mi West 3.5 mph - N/A   Overcast
9:53 PM 39.0 °F 36.8 °F 19.0 °F 45% 30.03 in 10.0 mi West 3.5 mph - N/A   Overcast
10:53 PM 37.9 °F - 19.9 °F 48% 30.03 in 10.0 mi Calm Calm - N/A   Overcast
11:53 PM 37.0 °F - 19.9 °F 50% 30.04 in 10.0 mi Calm Calm - N/A   Overcast